When you browse on this site, cookies collect data to enhance your experience and personalize the content and advertising you see.
Visit our Privacy Policy to learn more. By continuing to use the site, you agree to this use of cookies and data.
  • In Romania
  • List of Countries
  • For 7 days
  • Water Temperature
  • Satellite Maps
  • Weather Map
  • Weather Widgets
  • user-avatar
    Login

    Hourly Weather Sydney

    Today, 26 June, Wednesday

    Time Temperature Precipitation Wind Pressure Humidity
    00:00 +12°C° 0.4 mm 3 mps 774 mmHg 88%
    01:00 +12°C° 0.4 mm 3 mps 774 mmHg 89%
    02:00 +12°C° 0.2 mm 3 mps 774 mmHg 88%
    03:00 +12°C° 0.2 mm 3 mps 774 mmHg 86%
    04:00 +13°C° 0 mm 3 mps 774 mmHg 83%
    05:00 +12°C° 0.1 mm 3 mps 774 mmHg 84%
    06:00 +12°C° 0.1 mm 3 mps 775 mmHg 85%
    07:00 +12°C° 0.1 mm 3 mps 775 mmHg 86%
    08:00 +13°C° 0 mm 3 mps 775 mmHg 82%
    09:00 +14°C° 0 mm 3 mps 775 mmHg 77%
    10:00 +16°C° 0 mm 2 mps 776 mmHg 76%
    11:00 +17°C° 0.1 mm 3 mps 775 mmHg 72%
    12:00 +18°C° 0.1 mm 3 mps 774 mmHg 68%
    13:00 +19°C° 0.1 mm 4 mps 774 mmHg 63%
    14:00 +18°C° 0.1 mm 4 mps 774 mmHg 65%
    15:00 +18°C° 0.1 mm 4 mps 774 mmHg 67%
    16:00 +17°C° 0.1 mm 4 mps 774 mmHg 69%
    17:00 +15°C° 0.1 mm 4 mps 774 mmHg 73%
    18:00 +14°C° 0.1 mm 4 mps 774 mmHg 76%
    19:00 +13°C° 0.1 mm 4 mps 775 mmHg 80%
    20:00 +13°C° 0.2 mm 3 mps 775 mmHg 83%
    21:00 +13°C° 0.2 mm 3 mps 775 mmHg 85%
    22:00 +13°C° 0.2 mm 3 mps 775 mmHg 88%
    23:00 +12°C° 0.3 mm 3 mps 775 mmHg 88%

    Tomorrow, 27 June, Thursday

    Time Temperature Precipitation Wind Pressure Humidity
    00:00 +12°C° 0.3 mm 3 mps 775 mmHg 89%
    01:00 +12°C° 0.3 mm 3 mps 774 mmHg 89%
    02:00 +13°C° 0.2 mm 2 mps 774 mmHg 89%
    03:00 +13°C° 0.2 mm 2 mps 774 mmHg 89%
    04:00 +13°C° 0.2 mm 2 mps 774 mmHg 89%
    05:00 +13°C° 0.1 mm 1 mps 774 mmHg 90%
    06:00 +12°C° 0.1 mm 1 mps 775 mmHg 91%
    07:00 +12°C° 0.1 mm 1 mps 775 mmHg 92%
    08:00 +14°C° 0 mm 1 mps 775 mmHg 86%
    09:00 +15°C° 0 mm 1 mps 775 mmHg 81%
    10:00 +18°C° 0 mm 1 mps 775 mmHg 75%
    11:00 +19°C° 0 mm 1 mps 774 mmHg 68%
    12:00 +20°C° 0 mm 1 mps 774 mmHg 62%
    13:00 +21°C° 0 mm 1 mps 773 mmHg 55%
    14:00 +20°C° 0 mm 1 mps 773 mmHg 56%
    15:00 +20°C° 0 mm 1 mps 773 mmHg 57%
    16:00 +18°C° 0 mm 2 mps 773 mmHg 58%
    17:00 +18°C° 0 mm 1 mps 773 mmHg 64%
    18:00 +16°C° 0 mm 1 mps 773 mmHg 69%
    19:00 +14°C° 0 mm 1 mps 774 mmHg 74%
    20:00 +14°C° 0 mm 1 mps 774 mmHg 77%
    21:00 +13°C° 0 mm 1 mps 774 mmHg 79%
    22:00 +13°C° 0 mm 2 mps 774 mmHg 81%
    23:00 +12°C° 0 mm 2 mps 774 mmHg 83%

    Day after tomorrow, 28 June, Friday

    Time Temperature Precipitation Wind Pressure Humidity
    00:00 +12°C° 0 mm 2 mps 774 mmHg 84%
    01:00 +12°C° 0 mm 2 mps 774 mmHg 86%
    02:00 +12°C° 0.1 mm 2 mps 774 mmHg 86%
    03:00 +10°C° 0.1 mm 2 mps 774 mmHg 85%
    04:00 +10°C° 0.1 mm 2 mps 773 mmHg 85%
    05:00 +10°C° 0 mm 2 mps 773 mmHg 86%
    06:00 +10°C° 0 mm 2 mps 774 mmHg 87%
    07:00 +10°C° 0 mm 2 mps 774 mmHg 88%
    08:00 +12°C° 0 mm 2 mps 774 mmHg 81%
    09:00 +14°C° 0 mm 2 mps 773 mmHg 74%
    10:00 +16°C° 0 mm 2 mps 773 mmHg 67%
    11:00 +17°C° 0 mm 2 mps 773 mmHg 62%
    12:00 +18°C° 0 mm 2 mps 772 mmHg 58%
    13:00 +20°C° 0 mm 2 mps 771 mmHg 53%
    14:00 +19°C° 0 mm 3 mps 771 mmHg 55%
    15:00 +19°C° 0 mm 4 mps 771 mmHg 57%
    16:00 +18°C° 0 mm 4 mps 770 mmHg 59%
    17:00 +17°C° 0 mm 4 mps 770 mmHg 63%
    18:00 +15°C° 0 mm 4 mps 770 mmHg 68%
    19:00 +14°C° 0 mm 4 mps 771 mmHg 73%
    20:00 +13°C° 0 mm 4 mps 771 mmHg 76%
    21:00 +13°C° 0 mm 4 mps 771 mmHg 80%
    22:00 +12°C° 0 mm 4 mps 771 mmHg 83%
    23:00 +12°C° 0 mm 4 mps 771 mmHg 85%

    29 June, Saturday

    Time Temperature Precipitation Wind Pressure Humidity
    00:00 +11°C° 0 mm 4 mps 770 mmHg 87%
    01:00 +11°C° 0 mm 4 mps 770 mmHg 89%
    02:00 +10°C° 0 mm 3 mps 770 mmHg 90%
    03:00 +10°C° 0 mm 3 mps 769 mmHg 91%
    04:00 +10°C° 0 mm 3 mps 769 mmHg 91%
    05:00 +9°C° 0 mm 3 mps 769 mmHg 91%
    06:00 +9°C° 0 mm 3 mps 769 mmHg 91%
    07:00 +9°C° 0 mm 3 mps 769 mmHg 90%
    08:00 +11°C° 0 mm 3 mps 769 mmHg 81%
    09:00 +13°C° 0 mm 3 mps 768 mmHg 72%
    10:00 +14°C° 0 mm 3 mps 768 mmHg 63%
    11:00 +18°C° 0 mm 4 mps 767 mmHg 55%
    12:00 +20°C° 0 mm 5 mps 766 mmHg 47%
    13:00 +22°C° 0 mm 5 mps 765 mmHg 39%
    14:00 +21°C° 0 mm 5 mps 765 mmHg 38%
    15:00 +21°C° 0 mm 6 mps 764 mmHg 38%
    16:00 +21°C° 0 mm 6 mps 763 mmHg 38%
    17:00 +19°C° 0 mm 6 mps 763 mmHg 43%
    18:00 +17°C° 0 mm 6 mps 763 mmHg 48%
    19:00 +16°C° 0 mm 6 mps 763 mmHg 53%
    20:00 +16°C° 0 mm 7 mps 763 mmHg 55%
    21:00 +15°C° 0 mm 7 mps 763 mmHg 58%
    22:00 +15°C° 0 mm 7 mps 762 mmHg 60%
    23:00 +15°C° 0 mm 7 mps 762 mmHg 61%

    30 June, Sunday

    Time Temperature Precipitation Wind Pressure Humidity
    00:00 +15°C° 0 mm 7 mps 762 mmHg 62%
    01:00 +15°C° 0 mm 7 mps 762 mmHg 63%
    02:00 +14°C° 0 mm 6 mps 762 mmHg 64%
    03:00 +14°C° 0 mm 5 mps 763 mmHg 64%
    04:00 +13°C° 0 mm 4 mps 763 mmHg 64%
    05:00 +12°C° 0 mm 4 mps 763 mmHg 62%
    06:00 +10°C° 0 mm 5 mps 764 mmHg 60%
    07:00 +10°C° 0 mm 5 mps 765 mmHg 57%
    08:00 +12°C° 0 mm 5 mps 766 mmHg 52%
    09:00 +13°C° 0 mm 5 mps 766 mmHg 47%
    10:00 +14°C° 0 mm 5 mps 767 mmHg 41%
    11:00 +15°C° 0 mm 5 mps 766 mmHg 37%
    12:00 +17°C° 0 mm 4 mps 766 mmHg 33%
    13:00 +18°C° 0 mm 3 mps 765 mmHg 29%
    14:00 +17°C° 0 mm 3 mps 765 mmHg 30%
    15:00 +17°C° 0 mm 2 mps 765 mmHg 30%
    16:00 +17°C° 0 mm 2 mps 765 mmHg 30%
    17:00 +15°C° 0 mm 2 mps 766 mmHg 35%
    18:00 +14°C° 0 mm 2 mps 766 mmHg 39%
    19:00 +12°C° 0 mm 2 mps 767 mmHg 44%
    20:00 +12°C° 0 mm 2 mps 767 mmHg 46%
    21:00 +10°C° 0 mm 2 mps 767 mmHg 48%
    22:00 +9°C° 0 mm 2 mps 767 mmHg 50%
    23:00 +9°C° 0 mm 2 mps 767 mmHg 51%

    1 July, Monday

    Time Temperature Precipitation Wind Pressure Humidity
    00:00 +8°C° 0 mm 2 mps 767 mmHg 52%
    01:00 +8°C° 0 mm 2 mps 767 mmHg 52%
    02:00 +8°C° 0 mm 2 mps 767 mmHg 52%
    03:00 +8°C° 0 mm 2 mps 766 mmHg 52%
    04:00 +7°C° 0 mm 2 mps 766 mmHg 52%
    05:00 +7°C° 0 mm 2 mps 766 mmHg 52%
    06:00 +7°C° 0 mm 2 mps 767 mmHg 52%
    07:00 +7°C° 0 mm 2 mps 767 mmHg 52%
    08:00 +8°C° 0 mm 2 mps 767 mmHg 47%
    09:00 +10°C° 0 mm 2 mps 766 mmHg 42%
    10:00 +11°C° 0 mm 3 mps 766 mmHg 37%
    11:00 +13°C° 0 mm 3 mps 765 mmHg 36%
    12:00 +16°C° 0 mm 3 mps 764 mmHg 34%
    13:00 +18°C° 0 mm 4 mps 764 mmHg 33%
    14:00 +17°C° 0 mm 4 mps 763 mmHg 36%
    15:00 +17°C° 0 mm 4 mps 763 mmHg 40%
    16:00 +17°C° 0 mm 4 mps 763 mmHg 43%
    17:00 +15°C° 0 mm 4 mps 763 mmHg 48%
    18:00 +13°C° 0 mm 4 mps 763 mmHg 53%
    19:00 +12°C° 0 mm 4 mps 763 mmHg 58%
    20:00 +11°C° 0 mm 4 mps 763 mmHg 56%
    21:00 +11°C° 0 mm 4 mps 763 mmHg 54%
    22:00 +10°C° 0 mm 4 mps 763 mmHg 52%
    23:00 +10°C° 0 mm 3 mps 762 mmHg 53%
    Show more